Regional Weather Roundup
Issued by NWS Jackson, KY

Home | Current Version | Previous Version | Text Only | Print | Product List | Glossary On
Versions: 1 2 3 4 5 6 7 8 9 10 11 12 13 14 15 16 17 18 19 20 21 22 23 24 25 26 27 28 29 30 31 32 33 34 35 36 37 38 39 40 41 42 43 44 45 46 47 48 49 50
000
ASUS43 KJKL 011610
RWRJKL

EAST KENTUCKY HOURLY WEATHER ROUNDUP
NATIONAL WEATHER SERVICE JACKSON KY
1100 AM EST SUN MAR 01 2015

NOTE: "FAIR" INDICATES FEW OR NO CLOUDS BELOW 12,000 FEET WITH
NO SIGNIFICANT WEATHER AND/OR OBSTRUCTIONS TO VISIBILITY.

* THESE REPORTS ARE NOT UNDER NWS QUALITY CONTROL AND MAY NOT
  REPORT WEATHER SUCH AS PRECIPITATION AND FOG.

KYZ079-080-083-085-087-088-110-112-115-119-120-011700
...EASTERN KENTUCKY...

CITY           SKY/WX    TMP DP  RH WIND       PRES   REMARKS
JACKSON        CLOUDY    39  29  67 CALM      30.37F
LONDON         CLOUDY    44  28  53 S3        30.38F
SOMERSET*      CLOUDY    43  32  65 CALM      30.40S
MONTICELLO*    CLOUDY    49  41  74 S6        30.41R
MIDDLESBORO*   CLOUDY    41  31  67 S13       30.42F
HAZARD APT*    CLOUDY    41  30  65 CALM      30.37F
BLACK MTN*       N/A     37  36  93 S5          N/A  WCI  34
PIKEVILLE APT* DRIZZLE   37  32  81 N6        30.38F WCI  33
BIG SANDY*     LGT RAIN  36  33  90 CALM      30.39F
MOREHEAD APT*  LGT RAIN  36  34  93 SE6       30.39F WCI  31
$$

KYZ035-036-041-042-044-050-067-078-099-011700
...CENTRAL KENTUCKY...

CITY           SKY/WX    TMP DP  RH WIND       PRES   REMARKS
MT STERLING*   CLOUDY    36  36 100 SW5       30.38S WCI  32
FLEMING/MASON* RAIN      34  34 100 S7        30.37F WCI  28
DANVILLE*      LGT RAIN  37  32  81 S5        30.39S WCI  34
RICHMOND*      CLOUDY    41  34  75 S3        30.37S
LEXINGTON      RAIN      38  35  89 S10       30.37S FOG     WCI  31
FRANKFORT      MIX PCPN  36  33  89 S6        30.35F FOG     WCI  31
$$

KYZ091>093-OHZ055-061-077-WVZ005-015-034-035-042-011700
...SOUTHERN OHIO/WEST VIRGINIA...

CITY           SKY/WX    TMP DP  RH WIND       PRES   REMARKS
COVINGTON      LGT RAIN  34  28  79 S5        30.33F WCI  30
COLUMBUS       LGT SNOW  30  27  88 S3        30.35F VSB 1
DAYTON         LGT SNOW  30  27  88 SW6       30.34F FOG     WCI  24
WILMINGTON     LGT SNOW  30  27  88 S7        30.33F FOG     WCI  23
HUNTINGTON     RAIN      33  32  96 CALM      30.38F
CHARLESTON     RAIN      36  35  96 CALM      30.42F FOG
PINEVILLE*     CLOUDY    40  37  86 MISG      30.44F
BECKLEY        CLOUDY    37  29  72 SE6       30.38S WCI  32
BLUEFIELD      CLOUDY    47  33  58 SW8       30.39S
$$

VAZ002-007-008-TNZ017-027-036-066-071-011700
...SOUTHWEST VIRGINIA/EAST TENNESSEE...

CITY           SKY/WX    TMP DP  RH WIND       PRES   REMARKS
WISE*          CLOUDY    45  30  57 W6        30.39F
JONESVILLE*    CLOUDY    41  28  60 CALM      30.45F
ABINGDON*      CLOUDY    44  30  58 E6        30.42S
BRISTOL        PTSUNNY   47  32  56 CALM      30.42F
KNOXVILLE      CLOUDY    43  31  62 CALM      30.43F
OAK RIDGE      CLOUDY    46  33  60 VRB5      30.46S
CROSSVILLE     CLOUDY    46  42  86 S9        30.40R
NASHVILLE      LGT RAIN  50  42  74 S10       30.39R
$$

...KEY TO REMARKS...
VSB - VISIBILITY IN MILES
WCI - WIND CHILL INDEX
HX  - HEAT INDEX

$$


USA.gov is the U.S. government's official web portal to all federal, state and local government web resources and services.